Simultaneous Nadir Overpasses (SNOs) Predictions

Prediction of SNOs between NOAA-19 and TERRA Satellite Orbit:

Table of predicted SNOs for the next 14.0 days since TLE Epoch: 2/16/2013
Index Date (NOAA-19) Time (NOAA-19) Lat,Lon (NOAA-19) SZA (NOAA-19 ) Date (TERRA) Time (TERRA) Lat,Lon (TERRA) SZA (TERRA ) Distance(km) Time Diff (sec)
1 02/17/2013 19:05:28 69.81,-107.46 81.49 02/17/2013 19:06:38 69.73,-106.32 81.37 44.89 70
2 02/17/2013 19:56:20 -69.22, 60.66 99.14 02/17/2013 19:56:15 -69.24, 60.65 99.13 2.00 5
3 02/17/2013 20:47:04 68.29,-130.82 79.89 02/17/2013 20:45:56 68.36,-132.81 80.01 81.82 68
4 02/19/2013 23:49:53 69.75,-178.46 80.64 02/19/2013 23:51:04 69.65,-177.54 80.51 37.47 71
5 02/20/2013 00:40:47 -69.23, -10.46 99.91 02/20/2013 00:40:40 -69.21, -10.48 99.93 1.95 7
6 02/20/2013 01:31:29 68.22, 158.16 79.04 02/20/2013 01:30:22 68.28, 155.99 79.15 89.60 67
7 02/22/2013 04:34:20 69.80, 110.37 79.89 02/22/2013 04:35:31 69.67, 111.38 79.73 41.20 71
8 02/22/2013 05:25:14 -69.25, -81.59 100.69 02/22/2013 05:25:07 -69.24, -81.57 100.71 1.31 7
9 02/22/2013 06:15:56 68.27, 87.00 78.29 02/22/2013 06:14:49 68.30, 84.91 78.38 86.31 67
10 02/24/2013 09:18:49 69.95, 39.04 79.24 02/24/2013 09:19:58 69.85, 40.49 79.10 56.90 69
11 02/24/2013 10:09:41 -69.27,-152.72 101.48 02/24/2013 10:09:37 -69.26,-152.67 101.50 2.70 4
12 02/24/2013 11:00:25 68.43, 15.70 77.65 02/24/2013 10:59:16 68.49, 14.00 77.75 69.45 69
13 02/26/2013 14:03:20 70.21, -32.47 78.70 02/26/2013 14:04:27 70.07, -30.33 78.50 82.57 67
14 02/26/2013 14:54:07 -69.25, 136.21 102.32 02/26/2013 14:54:10 -69.26, 136.20 102.31 1.65 3
15 02/26/2013 15:44:55 68.64, -55.69 77.05 02/26/2013 15:43:45 68.72, -56.85 77.15 47.58 70
16 02/28/2013 19:38:34 -69.29, 65.06 103.11 02/28/2013 19:38:46 -69.27, 65.05 103.14 2.45 12
17 02/28/2013 20:29:28 69.02,-127.31 76.60 02/28/2013 20:28:15 69.06,-127.57 76.65 11.13 73




NCC Satellite Simultaneous Nadir Overpasses (SNOs) Prediction Service
